Temperature
28 28 26 26 27 26 27 26 26 24 23 23 22 21 20 20 20 19 19 19 18 17 17 16 15 15 15 15 15 14 15 15 15 15 15 15 16 16 16 17 17 17 18 18
28 26 26 27 27 27 27 26 26 24 23 23 22 21 21 20 19 19 18 18 17 16 16 15 15 14 14 14 14 14 14 14 14 14 14 14 15 15 16 16 16 17 17 17
27 25 26 26 26 26 26 25 24 24 23 23 22 21 20 20 19 19 18 17 16 16 15 15 14 14 13 13 13 13 13 13 14 14 14 14 14 15 15 15 16 16 16 17
26 26 26 26 25 24 24 24 23 23 22 22 22 20 19 20 19 19 18 17 16 15 15 14 14 13 13 13 13 13 13 13 13 13 14 14 14 14 14 15 15 15 16 16
25 25 25 25 24 23 23 23 23 23 22 22 23 22 19 20 18 18 18 17 16 15 14 14 13 13 13 13 13 13 13 13 13 13 13 13 14 14 14 14 15 15 15 16
24 24 24 23 24 23 23 23 23 23 23 22 23 22 19 18 18 18 17 17 16 15 14 14 13 13 13 13 13 12 12 13 13 13 13 13 13 13 14 14 14 15 15 15
24 24 24 23 24 24 24 23 22 22 21 22 22 21 18 18 18 18 17 17 16 15 14 14 13 13 13 13 13 12 12 12 12 12 13 13 13 13 13 14 14 14 15 15
26 24 23 23 22 22 24 23 22 21 22 21 21 20 18 19 18 18 17 16 16 15 15 14 14 13 13 13 13 12 12 12 12 12 12 13 13 13 13 13 13 14 14 14
27 23 22 22 22 23 23 23 23 22 23 23 22 20 18 19 19 18 17 17 16 15 15 14 14 14 13 13 13 12 12 12 12 12 12 12 12 12 13 13 13 13 14 14
26 24 23 23 22 23 23 22 23 22 21 21 22 21 19 18 18 18 18 17 16 16 15 15 14 14 14 13 13 13 12 12 12 12 12 12 12 12 12 13 13 13 13 13
26 25 23 23 23 22 22 23 22 23 22 21 20 19 20 19 18 18 18 17 16 16 16 15 15 14 14 14 13 13 12 12 12 12 12 12 12 12 12 12 12 12 13 13
25 25 25 23 22 22 22 21 21 21 21 22 20 19 20 19 18 18 17 17 17 16 16 16 15 15 14 14 13 13 12 12 12 12 12 12 11 11 12 12 12 12 12 12
24 24 24 22 21 21 22 21 21 21 22 22 21 19 20 19 18 18 17 17 17 17 16 16 15 15 14 14 13 13 12 12 12 12 11 11 11 11 11 11 11 12 12 12
21 24 24 22 22 23 22 21 21 21 21 22 22 20 19 19 19 18 17 17 17 17 17 16 16 15 15 14 14 13 13 12 12 12 11 11 11 11 11 11 11 11 11 12
23 24 25 24 23 23 22 22 22 21 21 21 21 21 21 20 19 18 18 17 17 17 17 17 16 16 15 15 14 13 13 12 12 12 11 11 11 11 11 11 11 11 11 11
24 24 24 24 23 23 23 23 22 22 21 21 21 21 21 20 19 18 18 18 18 17 17 17 16 16 15 15 14 14 13 13 12 12 11 11 11 11 11 11 11 11 11 11
25 24 24 25 24 23 23 24 23 22 22 22 21 21 21 20 19 19 18 18 18 17 17 16 16 16 16 15 15 14 13 13 12 12 11 11 11 11 10 10 10 10 10 10
25 24 24 24 25 24 24 25 24 23 23 23 22 22 21 20 19 19 18 18 18 17 17 16 16 16 16 15 15 14 14 13 12 12 11 11 11 10 10 10 10 10 10 10
24 24 23 24 24 25 23 24 23 22 22 24 23 22 21 20 19 19 18 18 18 17 17 16 16 16 16 15 15 15 14 13 12 12 11 11 11 10 10 10 10 10 9 9
23 23 23 23 23 24 24 24 23 23 22 24 23 22 21 20 19 19 19 18 18 17 16 16 16 16 15 15 15 15 14 13 12 12 11 11 11 11 10 10 10 10 9 9
22 22 22 22 23 25 24 23 23 21 23 24 23 22 21 20 20 20 19 18 17 17 16 16 16 15 15 15 15 14 14 13 12 12 11 11 11 11 10 10 10 10 9 9
25 25 24 24 24 24 23 22 23 24 24 24 23 22 21 21 20 19 18 18 17 17 16 16 16 15 15 15 14 14 14 13 12 12 11 11 11 11 10 10 10 10 10 9
25 26 25 25 25 23 22 23 24 24 24 24 23 22 21 21 20 19 18 18 17 17 16 16 16 15 15 15 15 14 14 13 12 12 12 11 11 11 11 10 10 10 10 10
27 27 25 25 26 26 24 23 23 23 23 23 23 22 21 21 20 19 18 18 17 17 17 16 16 16 16 15 15 14 14 13 13 12 12 12 11 11 11 11 10 10 10 10
26 25 25 25 25 26 26 24 23 23 22 22 22 22 21 20 20 19 18 18 18 17 17 16 16 16 16 15 15 14 14 14 13 13 13 12 12 11 11 11 11 10 10 10
26 26 25 24 26 26 26 25 23 23 22 22 22 21 21 20 20 19 19 18 18 17 17 17 16 16 16 16 15 15 14 14 14 14 14 13 12 12 12 11 11 11 10 10
Wind_Speed
1 2 6 8 8 9 11 11 7 6 6 4 5 6 5 4 6 8 9 10 11 12 13 12 12 12 11 11 11 10 9 8 6 4 5 5 5 5 5 4 6 7 7 8
5 4 6 5 5 9 10 10 6 6 5 1 3 5 5 4 6 7 10 11 12 12 13 12 12 12 13 12 11 11 10 9 8 6 5 5 6 6 6 5 4 6 7 8
5 7 4 5 6 9 9 6 8 4 1 3 4 5 7 5 6 8 9 10 11 12 13 13 13 13 12 12 12 11 10 10 9 9 6 6 5 5 5 5 5 5 6 6
4 4 4 6 5 8 7 7 5 5 5 5 6 2 7 5 6 8 9 10 10 10 11 11 12 12 12 12 12 12 11 11 10 9 7 8 6 6 6 6 5 6 5 4
5 4 6 6 6 6 6 5 6 7 8 8 6 3 6 3 7 9 9 9 9 10 10 10 11 10 11 11 10 10 10 10 10 10 9 7 7 6 6 6 6 5 4 4
6 3 4 5 3 2 5 7 7 7 8 7 3 2 5 4 7 8 9 9 9 9 9 9 10 9 9 9 9 9 10 10 10 10 10 9 9 9 8 7 5 4 3 3
7 5 4 4 6 5 5 7 5 5 5 1 4 2 5 6 6 6 7 8 8 7 8 8 9 9 8 8 9 9 9 9 10 10 9 10 10 9 8 7 5 5 3 3
7 6 4 5 5 5 5 5 6 5 3 3 3 3 5 5 3 4 5 6 7 7 6 7 7 7 6 7 7 8 8 8 9 9 8 9 9 7 7 7 6 5 4 3
4 7 5 3 3 5 7 5 5 5 9 4 5 6 6 5 3 3 5 6 7 6 5 6 6 6 6 6 6 6 7 7 8 8 8 8 8 8 9 9 8 5 5 4
6 5 4 2 5 4 2 5 6 5 6 5 3 3 3 4 2 3 4 5 5 6 6 6 5 5 5 5 4 5 6 7 7 7 7 7 8 8 7 8 9 8 7 6
7 2 6 4 2 5 5 2 4 5 2 4 3 3 5 4 3 3 4 4 4 5 6 5 4 5 4 5 5 5 6 6 7 7 7 7 7 8 8 8 8 7 7 8
3 5 4 6 5 1 2 5 6 5 5 2 2 4 6 5 2 1 3 4 4 4 4 4 4 4 5 5 5 5 6 6 6 6 7 6 7 8 9 9 9 9 9 8
5 5 1 5 5 4 2 2 4 6 5 3 3 5 6 5 3 1 2 3 3 3 3 3 3 3 3 4 4 5 6 6 5 6 7 7 7 8 8 9 9 9 9 8
4 4 3 6 5 2 1 1 2 5 5 4 2 4 7 6 4 3 1 2 3 3 4 4 3 3 2 2 4 5 5 5 5 5 6 7 7 8 8 8 9 9 9 9
5 5 2 2 1 2 3 4 4 6 7 6 5 2 2 6 5 3 3 2 3 3 4 5 4 4 3 2 3 4 4 4 5 6 7 7 7 7 7 8 8 8 9 10
5 5 3 6 5 5 9 9 8 7 7 6 4 3 3 6 5 4 4 2 2 3 5 5 5 5 4 3 4 4 4 4 5 6 6 6 7 7 8 8 8 8 8 9
4 5 5 5 6 6 8 8 10 8 6 6 6 2 8 6 6 5 3 2 2 2 4 5 5 5 4 4 4 4 3 4 5 6 6 6 7 7 7 8 8 8 7 7
4 5 4 7 5 5 5 4 2 6 8 7 6 3 7 6 5 4 4 3 2 1 3 4 5 4 4 5 4 2 3 5 6 6 5 6 6 7 6 6 7 7 6 6
6 4 4 4 6 5 6 4 3 4 7 9 10 8 8 7 6 7 8 5 2 2 2 3 4 5 5 6 5 4 4 6 6 5 5 6 6 6 6 6 6 5 5 5
5 5 5 5 5 3 7 8 5 3 5 8 11 11 10 9 7 7 10 8 5 3 2 3 4 4 5 5 4 3 4 6 6 5 6 6 5 5 6 6 5 5 4 5
5 5 6 6 6 2 8 9 6 3 4 4 9 11 12 11 5 5 11 8 6 4 2 1 3 2 3 4 4 4 6 6 6 5 5 5 5 4 4 5 5 5 5 5
5 4 5 4 5 0 9 7 5 4 2 1 6 9 11 9 7 8 8 8 7 6 4 2 2 1 1 2 4 3 5 4 4 3 3 3 4 4 4 3 3 4 5 5
4 3 3 2 2 6 8 8 6 4 5 3 5 7 10 10 9 9 8 7 7 6 5 4 2 2 2 2 2 3 3 3 3 3 1 0 1 2 3 4 5 5 5 5
4 2 2 5 5 5 11 11 8 6 6 5 4 8 10 10 9 9 8 8 7 6 5 5 4 5 2 3 2 0 1 2 3 3 2 2 0 2 3 3 4 4 5 5
3 3 4 6 8 7 6 9 9 8 7 7 5 8 10 10 10 10 9 8 8 7 6 5 5 3 2 2 3 3 1 3 4 4 5 4 2 2 1 2 2 3 3 3
9 8 7 6 5 5 4 3 6 8 9 9 8 8 9 10 10 10 10 8 8 7 7 7 6 4 5 4 3 4 3 3 5 3 2 2 2 2 1 2 2 2 2 3
Wind_Direction
259 322 35 19 360 325 314 308 311 104 104 82 107 120 102 54 36 16 9 10 14 7 1 8 358 354 347 346 346 337 334 338 335 330 316 312 306 296 280 259 252 242 231 231
209 83 42 351 323 303 296 297 305 107 95 41 155 146 124 86 52 35 16 10 11 2 356 1 359 358 353 351 345 338 344 338 335 331 317 305 300 293 284 277 271 257 236 221
54 59 12 321 329 336 315 341 343 344 88 229 215 184 146 123 71 45 28 17 11 2 359 0 359 357 357 356 350 348 347 342 341 335 326 319 309 301 299 297 280 265 252 228
80 52 339 315 6 351 334 33 341 302 272 233 207 222 133 123 62 35 26 17 11 9 3 1 360 360 1 359 355 353 354 353 349 343 338 330 318 308 301 300 289 283 268 246
98 42 355 354 20 342 339 335 291 271 259 268 233 246 123 88 28 20 19 15 15 14 6 4 3 0 2 1 358 357 356 357 352 348 343 338 328 313 305 307 300 294 288 268
95 90 34 357 318 271 291 269 245 240 250 250 234 285 108 55 18 9 13 14 13 11 8 6 4 4 6 5 1 1 360 359 355 354 353 351 345 336 334 330 323 316 311 303
161 137 108 351 308 206 262 291 271 219 218 155 72 59 79 59 29 16 9 12 13 13 9 4 3 1 359 1 1 359 359 358 357 358 358 355 353 345 342 339 335 340 340 330
205 136 80 34 3 330 310 299 318 316 331 138 151 93 99 82 59 34 24 22 19 16 9 5 3 356 355 2 1 357 357 359 360 357 359 1 360 355 351 350 353 358 349 340
340 99 105 61 357 326 322 340 342 301 292 279 126 118 135 144 100 50 30 26 22 7 8 5 1 356 358 4 2 354 358 2 1 358 358 1 1 4 4 5 3 3 1 357
327 107 113 140 233 198 325 325 305 294 338 326 128 123 124 130 65 36 27 28 20 4 4 0 357 358 358 0 1 2 7 11 6 3 8 12 5 6 8 8 7 4 3 3
302 226 150 192 32 7 334 305 320 294 284 328 346 75 82 90 67 25 18 22 15 5 354 354 358 359 7 4 12 17 12 19 8 6 6 12 9 7 11 12 7 6 8 12
325 304 149 117 94 54 340 351 333 328 349 324 285 108 105 113 107 39 14 14 12 354 343 357 7 7 17 9 13 28 18 18 15 5 4 12 17 18 19 15 10 14 16 20
346 295 211 151 162 195 206 41 322 304 284 285 334 115 134 136 149 127 25 1 348 337 351 15 8 15 24 16 20 30 24 13 20 17 13 13 23 21 22 17 14 16 18 22
321 278 350 12 38 66 173 191 273 291 299 327 48 122 163 168 178 168 165 307 327 338 357 15 11 33 29 42 43 35 23 11 21 27 21 17 24 22 21 18 16 19 19 23
268 290 55 65 41 307 280 259 245 263 296 320 17 20 150 154 165 178 198 244 305 344 7 14 18 30 5 56 68 56 28 17 25 33 31 21 26 23 19 23 23 23 22 26
258 296 270 236 205 251 264 250 237 247 261 274 284 267 134 129 155 193 211 228 304 359 14 9 12 27 358 44 67 64 38 29 38 43 37 28 31 25 20 23 21 24 31 25
235 276 299 293 163 258 262 234 217 224 229 240 253 225 142 167 193 204 210 226 287 7 15 9 5 15 347 42 65 77 52 49 49 49 44 33 35 32 27 24 19 20 31 27
294 288 286 287 262 277 89 76 160 223 234 226 236 167 160 186 178 187 214 230 252 38 25 13 358 351 7 40 38 87 101 72 58 46 49 48 41 31 26 25 24 21 20 22
308 311 293 292 308 287 140 138 162 220 256 225 213 197 178 178 179 207 202 200 200 68 37 15 353 350 27 34 13 20 76 80 67 44 40 50 45 32 22 20 20 21 14 13
248 275 275 295 296 323 106 123 137 223 268 211 194 189 177 179 214 217 173 168 172 135 64 10 338 4 26 18 356 1 63 76 69 51 41 45 49 41 29 13 11 13 16 9
195 216 235 263 278 327 117 130 152 223 6 111 177 180 178 192 215 132 142 153 153 141 133 294 310 35 29 356 346 23 58 67 72 62 45 37 34 51 57 15 7 17 8 0
226 223 217 233 257 143 138 157 203 268 24 191 183 180 180 189 169 135 146 150 160 167 169 213 301 11 51 358 351 40 77 81 93 90 62 51 46 30 40 18 10 17 3 6
226 287 333 306 5 127 183 206 234 283 296 257 183 179 178 184 176 162 165 167 177 186 175 181 224 278 261 114 44 19 91 110 134 135 113 40 101 102 45 17 18 19 16 11
194 179 275 288 277 218 201 215 237 241 257 275 196 179 181 187 183 172 176 178 182 195 187 179 211 235 231 124 134 13 106 194 205 181 183 230 332 74 76 55 30 35 25 13
347 146 236 261 271 262 206 200 220 227 228 243 224 191 186 187 189 182 186 189 187 190 184 186 218 229 245 204 186 166 191 260 246 209 191 198 146 100 60 101 67 59 82 74
265 240 227 255 326 350 7 143 203 223 221 226 223 205 191 190 194 191 193 192 188 189 189 191 198 202 240 235 194 165 171 258 276 268 179 151 154 156 184 165 141 64 110 148
Height
1518 1519 1525 1527 1526 1527 1525 1526 1529 1534 1535 1539 1544 1549 1553 1555 1556 1556 1555 1554 1553 1553 1551 1548 1546 1543 1539 1537 1534 1531 1529 1527 1524 1522 1520 1518 1516 1515 1514 1514 1514 1515 1515 1517
1519 1526 1528 1527 1526 1526 1525 1527 1528 1533 1535 1538 1543 1548 1551 1555 1556 1557 1557 1556 1554 1553 1551 1548 1545 1542 1538 1535 1532 1529 1526 1524 1522 1519 1517 1515 1513 1511 1511 1510 1509 1510 1510 1511
1524 1531 1529 1528 1527 1529 1527 1531 1532 1535 1536 1537 1542 1549 1551 1553 1555 1557 1557 1557 1556 1554 1551 1548 1545 1541 1537 1534 1530 1527 1524 1521 1519 1516 1514 1512 1510 1508 1507 1506 1505 1505 1505 1507
1526 1530 1530 1529 1530 1535 1534 1534 1535 1536 1541 1540 1541 1554 1554 1552 1555 1556 1557 1557 1556 1554 1551 1548 1545 1541 1537 1533 1529 1526 1522 1519 1516 1514 1511 1509 1507 1505 1503 1502 1501 1501 1501 1502
1530 1532 1532 1533 1537 1539 1537 1536 1536 1536 1538 1540 1536 1545 1558 1551 1556 1557 1557 1557 1556 1554 1552 1549 1545 1541 1537 1533 1529 1525 1522 1518 1515 1512 1509 1507 1505 1502 1501 1499 1498 1498 1497 1498
1532 1534 1536 1538 1537 1538 1536 1535 1533 1534 1537 1545 1536 1544 1559 1556 1557 1557 1557 1557 1556 1554 1552 1549 1545 1541 1537 1533 1529 1525 1521 1518 1515 1512 1508 1506 1503 1500 1498 1496 1495 1494 1494 1494
1533 1533 1536 1538 1535 1533 1533 1538 1543 1545 1549 1545 1537 1545 1558 1555 1556 1557 1557 1557 1556 1554 1552 1549 1545 1541 1538 1534 1530 1526 1522 1519 1515 1512 1508 1505 1502 1499 1497 1495 1493 1492 1492 1492
1526 1537 1538 1539 1540 1541 1534 1537 1548 1554 1545 1545 1540 1548 1554 1553 1556 1557 1557 1557 1556 1554 1552 1549 1546 1542 1538 1535 1530 1527 1523 1520 1516 1512 1509 1505 1502 1499 1497 1495 1493 1492 1491 1490
1522 1540 1539 1541 1541 1539 1537 1533 1534 1542 1534 1537 1540 1548 1552 1552 1554 1556 1556 1556 1555 1554 1551 1549 1546 1543 1539 1535 1532 1528 1524 1521 1517 1514 1510 1507 1503 1501 1498 1496 1494 1492 1491 1490
1522 1536 1538 1539 1541 1539 1539 1539 1538 1540 1548 1549 1543 1545 1551 1552 1553 1554 1555 1555 1555 1553 1551 1549 1546 1543 1540 1536 1533 1529 1526 1523 1519 1516 1512 1509 1506 1503 1500 1497 1495 1493 1492 1491
1525 1528 1539 1538 1540 1543 1540 1538 1538 1537 1539 1551 1557 1558 1546 1550 1552 1553 1554 1554 1554 1553 1551 1548 1546 1543 1540 1537 1534 1531 1528 1524 1521 1518 1515 1511 1508 1505 1502 1500 1497 1496 1494 1493
1529 1529 1531 1537 1541 1542 1542 1543 1543 1549 1545 1542 1550 1558 1546 1549 1552 1553 1554 1554 1553 1552 1550 1548 1545 1543 1540 1538 1535 1532 1529 1526 1523 1520 1517 1514 1511 1507 1505 1502 1500 1498 1496 1494
1531 1533 1537 1546 1549 1545 1541 1544 1544 1544 1542 1540 1547 1556 1546 1549 1551 1552 1553 1553 1552 1551 1549 1547 1545 1543 1540 1538 1536 1533 1530 1527 1524 1521 1518 1516 1513 1510 1507 1505 1502 1500 1498 1497
1538 1531 1537 1547 1544 1538 1540 1543 1544 1545 1545 1540 1540 1545 1545 1546 1549 1551 1552 1552 1551 1550 1548 1547 1545 1542 1540 1538 1536 1534 1531 1528 1526 1523 1520 1517 1515 1512 1510 1507 1505 1502 1500 1498
1537 1531 1530 1534 1535 1537 1538 1540 1541 1543 1541 1543 1541 1541 1540 1542 1546 1549 1550 1550 1550 1549 1548 1546 1544 1543 1540 1538 1536 1534 1532 1530 1527 1524 1521 1519 1517 1514 1512 1509 1507 1504 1502 1500
1534 1532 1531 1533 1532 1534 1535 1533 1536 1538 1539 1539 1540 1540 1537 1541 1545 1547 1548 1548 1548 1548 1547 1546 1544 1543 1540 1538 1537 1535 1533 1531 1528 1526 1523 1521 1518 1516 1513 1511 1509 1507 1504 1502
1530 1532 1534 1531 1528 1533 1533 1523 1528 1532 1532 1535 1538 1536 1536 1540 1543 1545 1546 1547 1547 1547 1547 1546 1544 1543 1541 1539 1537 1535 1533 1531 1529 1527 1524 1522 1520 1517 1515 1513 1510 1508 1506 1504
1529 1531 1532 1532 1530 1539 1529 1519 1521 1526 1527 1528 1530 1532 1535 1538 1541 1543 1545 1545 1546 1546 1546 1545 1544 1543 1541 1539 1537 1535 1533 1532 1530 1528 1526 1524 1521 1519 1517 1514 1512 1510 1508 1506
1532 1533 1536 1533 1535 1526 1525 1521 1523 1528 1527 1523 1526 1529 1534 1537 1540 1541 1542 1543 1545 1545 1545 1545 1544 1543 1541 1539 1538 1536 1535 1532 1531 1529 1527 1525 1523 1521 1518 1516 1514 1512 1510 1508
1534 1534 1538 1535 1540 1533 1525 1520 1522 1527 1528 1517 1521 1526 1531 1535 1538 1536 1538 1541 1543 1544 1544 1544 1543 1542 1541 1539 1538 1537 1535 1533 1531 1530 1529 1527 1524 1522 1520 1518 1516 1514 1512 1510
1536 1536 1540 1541 1538 1521 1520 1521 1525 1534 1526 1516 1519 1523 1528 1531 1535 1534 1535 1538 1541 1542 1542 1542 1542 1542 1540 1539 1538 1537 1535 1533 1532 1531 1529 1528 1526 1524 1521 1519 1518 1516 1514 1512
1524 1526 1527 1529 1533 1529 1521 1522 1523 1522 1518 1518 1519 1522 1525 1529 1532 1533 1535 1537 1539 1540 1541 1541 1541 1541 1540 1539 1538 1537 1535 1534 1532 1531 1530 1529 1527 1525 1523 1521 1519 1517 1515 1514
1518 1517 1518 1519 1522 1517 1517 1517 1517 1517 1517 1517 1518 1520 1523 1527 1530 1532 1534 1536 1538 1539 1540 1540 1540 1540 1539 1538 1537 1536 1535 1534 1533 1532 1531 1530 1528 1527 1525 1523 1521 1519 1517 1515
1509 1512 1515 1516 1512 1511 1512 1513 1514 1515 1516 1516 1517 1518 1521 1524 1527 1529 1532 1534 1536 1537 1538 1538 1538 1538 1538 1537 1536 1535 1534 1533 1533 1532 1531 1530 1529 1528 1526 1524 1522 1520 1518 1516
1510 1512 1514 1514 1510 1508 1507 1509 1510 1512 1513 1514 1515 1516 1518 1521 1524 1526 1529 1531 1533 1535 1536 1536 1537 1537 1537 1536 1535 1534 1533 1533 1532 1532 1531 1530 1529 1528 1527 1525 1524 1522 1520 1517
1509 1508 1512 1512 1507 1507 1507 1507 1508 1508 1509 1511 1512 1513 1515 1517 1520 1523 1525 1528 1530 1531 1533 1533 1534 1534 1534 1535 1534 1533 1532 1531 1531 1531 1531 1530 1529 1528 1527 1526 1524 1523 1521 1519